period_start,C,m1,H,J0,J1,J2,J3,J4,J5,JA,JB,JC,JD,JJ,JK,JN,#
2014-05-31 00:03:52,0.04,0.18,0.00,22.49,26.77,29.24,9.52,39.69,1005.87,2042.02,3427.05,3277.39,3567.08,499.88,492.20,10.02,0000 0000 0000 0000 000000
2014-05-31 00:08:53,0.03,0.18,0.00,22.49,26.77,29.25,9.46,39.56,1005.87,2042.01,3426.27,3276.93,3566.58,499.65,491.87,10.06,0000 0000 0000 0000 000000
2014-05-31 00:13:55,0.05,0.18,0.00,22.49,26.77,29.25,9.44,39.71,1005.87,2042.01,3425.18,3276.10,3565.97,499.81,491.95,10.10,0000 0000 0000 0000 000000
2014-05-31 00:18:56,0.02,0.18,0.00,22.49,26.77,29.25,9.50,39.55,1005.87,2042.00,3424.75,3275.98,3565.23,499.85,492.11,10.14,0000 0000 0000 0000 000000
2014-05-31 00:23:56,0.03,0.18,0.00,22.49,26.77,29.25,9.50,39.64,1005.87,2042.01,3424.05,3275.62,3565.01,499.52,491.79,10.19,0000 0000 0000 0000 000000
2014-05-31 00:28:57,0.03,0.19,0.00,22.50,26.77,29.25,9.58,39.68,1005.87,2042.00,3423.51,3275.03,3564.60,500.18,492.50,10.23,0000 0000 0000 0000 000000
2014-05-31 00:33:58,0.07,0.19,0.00,22.51,26.77,29.26,9.47,39.61,1005.87,2042.01,3422.16,3274.22,3563.64,499.79,491.96,10.27,0000 0000 0000 0000 000000
2014-05-31 00:38:59,0.05,0.19,0.00,22.51,26.77,29.25,9.48,39.47,1005.87,2042.02,3420.90,3273.49,3562.93,500.01,492.30,10.31,0000 0000 0000 0000 000000
2014-05-31 00:44:00,0.04,0.19,0.00,22.52,26.77,29.25,9.49,39.64,1005.87,2042.03,3419.84,3272.94,3562.08,499.69,492.06,10.35,0000 0000 0000 0000 000000
2014-05-31 00:49:02,0.07,0.20,0.00,22.52,26.78,29.25,9.54,39.59,1005.87,2042.04,3418.50,3272.11,3561.30,499.89,492.11,10.40,0000 0000 0000 0000 000000
2014-05-31 00:54:03,0.00,0.20,0.00,22.52,26.78,29.25,9.53,39.60,1005.87,2042.04,3417.98,3271.92,3560.99,500.10,492.29,10.44,0000 0000 0000 0000 000000
2014-05-31 00:59:04,0.04,0.20,0.00,22.53,26.79,29.26,9.46,39.50,1005.87,2042.03,3417.35,3271.23,3560.72,500.01,492.12,10.48,0000 0000 0000 0000 000000
2014-05-31 01:04:06,0.01,0.20,0.00,22.54,26.80,29.25,9.50,39.53,1005.87,2042.01,3417.01,3271.02,3560.12,500.21,492.49,10.52,0000 0000 0000 0000 000000
2014-05-31 01:09:07,-0.00,0.20,0.00,22.54,26.80,29.26,9.53,39.67,1005.87,2042.01,3416.97,3271.00,3560.00,499.91,492.13,10.56,0000 0000 0000 0000 000000
2014-05-31 01:14:08,0.01,0.20,0.00,22.55,26.80,29.26,9.54,39.71,1005.87,2042.00,3416.51,3270.97,3559.99,499.73,492.07,10.60,0000 0000 0000 0000 000000
2014-05-31 01:19:09,0.01,0.20,0.00,22.57,26.80,29.25,9.49,39.62,1005.87,2042.00,3416.04,3270.78,3559.92,499.90,492.10,10.65,0000 0000 0000 0000 000000
2014-05-31 01:24:10,0.02,0.20,0.00,22.59,26.80,29.26,9.44,39.61,1005.87,2042.01,3415.99,3270.22,3559.44,499.63,491.70,10.69,0000 0000 0000 0000 000000
2014-05-31 01:29:11,0.00,0.20,0.00,22.59,26.80,29.26,9.48,39.63,1005.87,2042.00,3415.97,3270.02,3559.05,499.91,492.02,10.73,0000 0000 0000 0000 000000
2014-05-31 01:34:12,0.01,0.20,0.00,22.60,26.81,29.26,9.44,39.62,1005.87,2042.00,3415.47,3270.00,3558.99,499.81,491.90,10.77,0000 0000 0000 0000 000000
2014-05-31 01:39:13,0.01,0.20,0.00,22.62,26.82,29.27,9.52,39.57,1005.87,2042.00,3415.04,3269.98,3558.93,499.89,492.03,10.81,0000 0000 0000 0000 000000
2014-05-31 01:44:14,0.00,0.20,0.00,22.63,26.82,29.28,9.47,39.52,1005.87,2042.00,3415.00,3269.95,3558.78,499.94,492.07,10.86,0000 0000 0000 0000 000000
2014-05-31 01:49:15,0.02,0.20,0.00,22.64,26.82,29.28,9.50,39.42,1005.87,2042.00,3414.99,3269.62,3558.23,499.91,492.07,10.90,0000 0000 0000 0000 000000
2014-05-31 01:54:16,0.01,0.20,0.00,22.66,26.83,29.28,9.46,39.56,1005.87,2042.00,3414.90,3269.34,3558.06,500.15,492.12,10.94,0000 0000 0000 0000 000000
2014-05-31 01:59:17,0.01,0.21,0.00,22.67,26.85,29.29,9.48,39.62,1005.87,2042.00,3414.22,3269.01,3558.00,499.80,491.83,10.98,0000 0000 0000 0000 000000
2014-05-31 02:04:18,0.00,0.21,0.00,22.69,26.85,29.30,9.44,39.51,1005.87,2041.99,3414.05,3269.01,3558.00,499.49,491.58,11.02,0000 0000 0000 0000 000000
2014-05-31 02:09:18,0.00,0.21,0.00,22.71,26.85,29.32,9.44,39.58,1005.87,2041.99,3414.00,3268.99,3557.92,499.95,491.91,11.06,0000 0000 0000 0000 000000
2014-05-31 02:14:20,0.00,0.21,0.00,22.72,26.87,29.32,9.51,39.69,1005.87,2041.99,3413.99,3268.97,3557.65,500.07,491.91,11.11,0000 0000 0000 0000 000000
2014-05-31 02:19:21,0.00,0.21,0.00,22.74,26.87,29.34,9.47,39.52,1005.87,2041.98,3413.97,3268.93,3557.34,499.57,491.83,11.15,0000 0000 0000 0000 000000
2014-05-31 02:24:22,0.03,0.21,0.00,22.75,26.87,29.35,9.50,39.44,1005.87,2041.98,3413.62,3268.55,3557.05,500.00,491.81,11.19,0000 0000 0000 0000 000000
2014-05-31 02:29:23,0.01,0.21,0.00,22.77,26.90,29.34,9.49,39.57,1005.87,2041.97,3413.04,3268.09,3557.00,500.14,492.05,11.23,0000 0000 0000 0000 000000
2014-05-31 02:34:24,0.01,0.21,0.00,22.77,26.90,29.35,9.43,39.52,1005.87,2041.97,3412.88,3268.00,3556.70,499.59,491.39,11.27,0000 0000 0000 0000 000000
2014-05-31 02:39:25,0.04,0.21,0.00,22.79,26.91,29.37,9.50,39.65,1005.88,2041.96,3412.09,3267.61,3556.04,499.99,491.73,11.31,0000 0000 0000 0000 000000
2014-05-31 02:44:26,0.00,0.21,0.00,22.81,26.92,29.38,9.50,39.73,1005.89,2041.93,3411.99,3267.06,3555.99,500.19,491.94,11.36,0000 0000 0000 0000 000000
2014-05-31 02:49:28,0.02,0.21,0.00,22.82,26.92,29.38,9.44,39.58,1005.89,2041.92,3411.51,3267.00,3555.89,499.62,491.32,11.40,0000 0000 0000 0000 000000
2014-05-31 02:54:29,0.01,0.21,0.00,22.83,26.95,29.40,9.47,39.48,1005.89,2041.92,3411.08,3266.98,3555.35,500.26,491.92,11.44,0000 0000 0000 0000 000000
2014-05-31 02:59:30,0.02,0.21,0.00,22.84,26.95,29.40,9.49,39.62,1005.88,2041.88,3410.93,3266.54,3555.00,500.44,492.05,11.48,0000 0000 0000 0000 000000
2014-05-31 03:04:31,0.00,0.21,0.00,22.86,26.96,29.42,9.53,39.56,1005.87,2041.68,3410.22,3266.04,3554.83,499.78,491.43,11.52,0000 0000 0000 0000 000000
2014-05-31 03:09:32,-0.02,0.21,0.00,22.87,26.97,29.43,9.47,39.47,1005.87,2041.39,3409.99,3265.98,3554.12,499.89,491.53,11.57,0000 0000 0000 0000 000000
2014-05-31 03:14:33,0.02,0.21,0.00,22.88,26.98,29.45,9.40,39.68,1005.87,2041.16,3409.33,3265.64,3553.99,499.71,491.32,11.61,0000 0000 0000 0000 000000
2014-05-31 03:19:34,0.01,0.21,0.00,22.90,27.00,29.46,9.47,39.57,1005.88,2041.14,3409.02,3265.13,3553.97,499.93,491.61,11.65,0000 0000 0000 0000 000000
2014-05-31 03:24:35,0.01,0.21,0.00,22.92,27.01,29.47,9.42,39.33,1005.89,2041.10,3408.86,3265.01,3553.42,499.35,490.90,11.69,0000 0000 0000 0000 000000
2014-05-31 03:29:36,0.02,0.21,0.00,22.93,27.02,29.48,9.49,39.39,1005.88,2041.04,3408.07,3264.96,3553.01,499.75,491.19,11.73,0000 0000 0000 0000 000000
2014-05-31 03:34:37,0.02,0.22,0.00,22.95,27.03,29.49,9.46,39.42,1005.87,2041.07,3407.97,3264.55,3552.95,500.05,491.45,11.77,0000 0000 0000 0000 000000
2014-05-31 03:39:38,0.03,0.22,0.00,22.96,27.05,29.50,9.47,39.63,1005.87,2041.03,3407.33,3264.02,3552.32,499.75,491.42,11.82,0000 0000 0000 0000 000000
2014-05-31 03:44:40,0.00,0.22,0.00,22.97,27.05,29.52,9.46,39.50,1005.87,2041.01,3406.99,3263.99,3552.01,499.78,491.33,11.86,0000 0000 0000 0000 000000
2014-05-31 03:49:41,0.03,0.22,0.00,22.99,27.07,29.53,9.53,39.52,1005.87,2041.00,3406.49,3263.70,3551.95,500.50,492.02,11.90,0000 0000 0000 0000 000000
2014-05-31 03:54:42,0.03,0.22,0.00,23.00,27.08,29.54,9.53,39.54,1005.88,2041.00,3406.01,3263.04,3551.32,500.35,491.78,11.94,0000 0000 0000 0000 000000
2014-05-31 03:59:44,0.00,0.22,0.00,23.00,27.10,29.55,9.48,39.42,1005.87,2041.00,3405.87,3263.00,3551.02,499.99,491.60,11.98,0000 0000 0000 0000 000000
2014-05-31 04:04:45,0.02,0.22,0.00,23.03,27.11,29.57,9.50,39.59,1005.87,2041.00,3405.10,3262.98,3550.92,499.93,491.18,12.03,0000 0000 0000 0000 000000
2014-05-31 04:09:46,0.06,0.22,0.00,23.04,27.12,29.58,9.46,39.39,1005.87,2041.00,3404.54,3262.30,3550.18,499.73,491.20,12.07,0000 0000 0000 0000 000000
2014-05-31 04:14:47,0.01,0.22,0.00,23.06,27.13,29.59,9.45,39.54,1005.87,2041.00,3404.00,3261.99,3549.82,499.66,491.06,12.11,0000 0000 0000 0000 000000
2014-05-31 04:19:48,0.04,0.23,0.00,23.07,27.15,29.60,9.44,39.47,1005.87,2041.00,3403.46,3261.56,3549.09,500.01,491.43,12.15,0000 0000 0000 0000 000000
2014-05-31 04:24:49,0.01,0.23,0.00,23.09,27.16,29.61,9.50,39.58,1005.87,2040.99,3403.01,3261.05,3548.99,499.92,491.21,12.19,0000 0000 0000 0000 000000
2014-05-31 04:29:50,0.01,0.23,0.00,23.11,27.17,29.63,9.47,39.38,1005.87,2040.98,3402.87,3261.00,3548.80,500.19,491.59,12.23,0000 0000 0000 0000 000000
2014-05-31 04:34:51,0.03,0.23,0.00,23.12,27.19,29.64,9.42,39.24,1005.87,2040.97,3402.18,3260.77,3548.16,499.77,490.96,12.28,0000 0000 0000 0000 000000
2014-05-31 04:39:52,0.03,0.23,0.00,23.13,27.20,29.65,9.50,39.45,1005.87,2040.96,3401.59,3260.05,3547.89,499.87,491.23,12.32,0000 0000 0000 0000 000000
2014-05-31 04:44:54,0.03,0.23,0.00,23.14,27.22,29.67,9.51,39.38,1005.87,2040.92,3400.91,3259.80,3547.07,499.86,491.15,12.36,0000 0000 0000 0000 000000
2014-05-31 04:49:55,0.03,0.23,0.00,23.17,27.22,29.68,9.48,39.39,1005.87,2040.85,3400.12,3259.07,3546.72,500.02,491.08,12.40,0000 0000 0000 0000 000000
2014-05-31 04:54:56,0.00,0.23,0.00,23.19,27.25,29.70,9.47,39.31,1005.87,2040.57,3399.53,3258.71,3546.03,500.10,491.21,12.44,0000 0000 0000 0000 000000
2014-05-31 04:59:57,0.02,0.23,0.00,23.20,27.26,29.71,9.43,39.33,1005.87,2040.28,3398.68,3258.02,3545.41,499.74,490.95,12.49,0000 0000 0000 0000 000000
2014-05-31 05:04:58,0.03,0.23,0.00,23.21,27.27,29.72,9.44,39.29,1005.88,2040.25,3397.93,3257.53,3544.95,499.96,491.07,12.53,0000 0000 0000 0000 000000
2014-05-31 05:09:59,0.03,0.24,0.00,23.23,27.29,29.74,9.39,39.21,1005.88,2040.17,3397.07,3257.00,3544.14,499.70,490.97,12.57,0000 0000 0000 0000 000000
2014-05-31 05:15:00,0.04,0.24,0.00,23.24,27.30,29.76,9.37,39.17,1005.89,2040.08,3396.28,3256.30,3543.72,499.72,490.62,12.61,0000 0000 0000 0000 000000
2014-05-31 05:20:02,0.04,0.24,0.00,23.25,27.32,29.77,9.47,39.24,1005.89,2040.03,3395.30,3255.74,3542.94,500.38,491.40,12.65,0000 0000 0000 0000 000000
2014-05-31 05:25:03,0.04,0.24,0.00,23.27,27.33,29.77,9.53,39.49,1005.91,2040.01,3394.36,3255.01,3542.11,500.70,491.49,12.70,0000 0000 0000 0000 000000
2014-05-31 05:30:04,0.06,0.24,0.00,23.27,27.35,29.79,9.48,39.37,1005.90,2040.00,3393.28,3254.15,3541.22,499.69,490.81,12.74,0000 0000 0000 0000 000000
2014-05-31 05:35:05,0.04,0.24,0.00,23.28,27.36,29.80,9.46,39.34,1005.90,2040.00,3392.41,3253.71,3540.74,500.24,491.31,12.78,0000 0000 0000 0000 000000
2014-05-31 05:40:06,0.03,0.25,0.00,23.30,27.37,29.82,9.44,39.17,1005.97,2040.00,3391.74,3253.03,3540.01,500.15,491.15,12.82,0000 0000 0000 0000 000000
2014-05-31 05:45:08,0.05,0.25,0.00,23.31,27.39,29.84,9.43,39.25,1005.95,2040.00,3390.88,3252.37,3539.31,499.55,490.57,12.86,0000 0000 0000 0000 000000
2014-05-31 05:50:09,0.02,0.25,0.00,23.33,27.40,29.85,9.37,39.16,1005.89,2040.00,3390.09,3251.99,3538.95,499.93,490.87,12.90,0000 0000 0000 0000 000000
2014-05-31 05:55:10,0.05,0.25,0.00,23.34,27.42,29.87,9.42,39.36,1005.89,2040.00,3389.57,3251.32,3538.14,499.70,490.59,12.95,0000 0000 0000 0000 000000
2014-05-31 06:00:11,0.02,0.25,0.00,23.34,27.42,29.87,9.45,39.27,1005.89,2039.99,3388.87,3250.99,3537.72,500.01,490.94,12.99,0000 0000 0000 0000 000000
2014-05-31 06:05:12,0.05,0.26,0.00,23.35,27.45,29.89,9.43,39.33,1005.90,2039.97,3387.87,3250.15,3536.95,499.76,490.57,13.03,0000 0000 0000 0000 000000
2014-05-31 06:10:14,0.05,0.26,0.00,23.37,27.45,29.90,9.44,39.52,1005.89,2039.97,3386.95,3249.53,3536.13,499.95,490.98,13.07,0000 0000 0000 0000 000000
2014-05-31 06:15:15,0.03,0.26,0.00,23.37,27.47,29.91,9.49,39.42,1005.95,2039.93,3386.07,3248.89,3535.38,499.98,490.93,13.11,0000 0000 0000 0000 000000
2014-05-31 06:20:16,0.01,0.26,0.00,23.39,27.47,29.92,9.45,39.08,1005.96,2039.69,3385.24,3248.09,3534.91,499.85,491.02,13.16,0000 0000 0000 0000 000000
2014-05-31 06:25:16,0.03,0.26,0.00,23.40,27.50,29.94,9.45,39.22,1005.92,2039.72,3384.78,3247.96,3534.18,500.23,491.02,13.20,0000 0000 0000 0000 000000
2014-05-31 06:30:17,0.00,0.26,0.00,23.41,27.50,29.95,9.45,39.02,1005.90,2039.48,3383.93,3247.25,3533.79,500.09,490.89,13.24,0000 0000 0000 0000 000000
2014-05-31 06:35:19,0.03,0.26,0.00,23.41,27.52,29.97,9.44,39.23,1005.91,2039.23,3383.06,3246.69,3533.03,500.16,490.83,13.28,0000 0000 0000 0000 000000
2014-05-31 06:40:19,0.03,0.27,0.00,23.42,27.53,29.98,9.48,39.18,1005.89,2039.18,3382.31,3246.02,3532.46,499.94,490.68,13.32,0000 0000 0000 0000 000000
2014-05-31 06:45:20,0.02,0.27,0.00,23.43,27.55,29.99,9.41,39.19,1005.88,2039.17,3381.73,3245.78,3532.00,499.77,490.50,13.36,0000 0000 0000 0000 000000
2014-05-31 06:50:21,0.05,0.27,0.00,23.44,27.55,30.01,9.45,39.20,1005.88,2039.13,3380.98,3245.05,3531.47,499.92,490.62,13.41,0000 0000 0000 0000 000000
2014-05-31 06:55:23,0.01,0.27,0.00,23.45,27.57,30.02,9.45,38.92,1005.89,2039.05,3380.18,3244.96,3531.01,500.00,490.73,13.45,0000 0000 0000 0000 000000
2014-05-31 07:00:24,0.02,0.27,0.00,23.47,27.58,30.04,9.44,39.19,1005.89,2039.04,3380.00,3244.40,3530.86,499.79,490.56,13.49,0000 0000 0000 0000 000000
2014-05-31 07:05:25,0.02,0.27,0.00,23.47,27.60,30.05,9.48,38.83,1005.90,2039.01,3379.63,3244.01,3530.10,500.40,491.06,13.53,0000 0000 0000 0000 000000
2014-05-31 07:10:26,0.00,0.27,0.00,23.48,27.60,30.06,9.41,39.02,1005.93,2039.01,3379.06,3243.99,3530.00,499.77,490.63,13.57,0000 0000 0000 0000 000000
2014-05-31 07:15:27,0.00,0.27,0.00,23.50,27.62,30.07,9.43,39.19,1005.96,2039.00,3379.00,3243.94,3529.99,500.20,490.99,13.61,0000 0000 0000 0000 000000
2014-05-31 07:20:27,0.01,0.27,0.00,23.50,27.62,30.07,9.49,39.06,1005.92,2039.00,3378.98,3243.59,3529.83,500.24,490.79,13.66,0000 0000 0000 0000 000000
2014-05-31 07:25:29,0.03,0.27,0.00,23.52,27.64,30.09,9.47,39.05,1005.95,2039.00,3378.62,3243.07,3529.18,499.99,490.62,13.70,0000 0000 0000 0000 000000
2014-05-31 07:30:30,0.01,0.27,0.00,23.52,27.65,30.11,9.44,39.19,1006.00,2039.00,3378.04,3243.00,3529.01,499.97,490.65,13.74,0000 0000 0000 0000 000000
2014-05-31 07:35:31,0.00,0.27,0.00,23.54,27.66,30.11,9.37,39.13,1006.04,2039.00,3378.00,3243.00,3529.00,500.09,490.65,13.78,0000 0000 0000 0000 000000
2014-05-31 07:40:32,0.00,0.27,0.00,23.54,27.67,30.12,9.46,39.31,1006.27,2039.00,3377.96,3242.98,3528.97,500.18,490.86,13.82,0000 0000 0000 0000 000000
2014-05-31 07:45:33,0.04,0.28,0.00,23.56,27.69,30.13,9.48,39.48,1006.34,2038.97,3377.46,3242.52,3528.42,500.12,490.96,13.87,0000 0000 0000 0000 000000
2014-05-31 07:50:34,0.01,0.28,0.00,23.57,27.70,30.15,9.46,39.29,1006.31,2038.97,3377.02,3242.06,3528.03,500.03,490.87,13.91,0000 0000 0000 0000 000000
2014-05-31 07:55:36,0.00,0.28,0.00,23.57,27.70,30.16,9.41,39.22,1006.22,2038.96,3376.99,3242.00,3528.00,499.81,490.61,13.95,0000 0000 0000 0000 000000
2014-05-31 08:00:37,0.00,0.28,0.00,23.57,27.72,30.16,9.49,39.24,1006.31,2038.88,3376.88,3241.99,3527.94,500.27,491.05,13.99,0000 0000 0000 0000 000000
2014-05-31 08:05:38,0.03,0.28,0.00,23.58,27.72,30.17,9.46,39.26,1006.35,2038.78,3376.09,3241.59,3527.30,500.08,490.72,14.03,0000 0000 0000 0000 000000
2014-05-31 08:10:39,0.02,0.28,0.00,23.60,27.74,30.19,9.45,39.22,1006.36,2038.62,3375.06,3241.01,3526.95,499.72,490.47,14.07,0000 0000 0000 0000 000000
2014-05-31 08:15:40,0.02,0.28,0.00,23.61,27.75,30.20,9.45,39.36,1006.35,2038.55,3374.27,3240.86,3526.16,499.85,490.53,14.12,0000 0000 0000 0000 000000
2014-05-31 08:20:41,0.02,0.28,0.00,23.62,27.75,30.20,9.47,39.02,1006.36,2038.45,3374.00,3240.30,3526.01,500.33,490.93,14.16,0000 0000 0000 0000 000000
2014-05-31 08:25:43,0.00,0.28,0.00,23.62,27.77,30.21,9.43,39.24,1006.36,2038.35,3373.47,3240.02,3525.98,500.16,491.01,14.20,0000 0000 0000 0000 000000
2014-05-31 08:30:44,0.01,0.28,0.00,23.63,27.77,30.23,9.43,39.42,1006.36,2038.28,3373.02,3239.99,3525.59,499.95,490.75,14.24,0000 0000 0000 0000 000000
2014-05-31 08:35:45,-0.01,0.28,0.00,23.64,27.79,30.23,9.45,39.25,1006.36,2038.14,3372.98,3239.96,3525.06,500.20,490.86,14.28,0000 0000 0000 0000 000000
2014-05-31 08:40:46,0.03,0.28,0.00,23.65,27.80,30.24,9.49,39.28,1006.36,2038.05,3372.35,3239.37,3524.99,500.47,491.17,14.33,0000 0000 0000 0000 000000
2014-05-31 08:45:46,0.00,0.28,0.00,23.65,27.80,30.25,9.50,39.38,1006.36,2038.02,3372.00,3239.01,3524.96,499.97,490.65,14.37,0000 0000 0000 0000 000000
2014-05-31 08:50:47,0.01,0.28,0.00,23.65,27.81,30.26,9.41,39.63,1006.36,2038.03,3371.99,3239.00,3524.53,499.43,490.27,14.41,0000 0000 0000 0000 000000
2014-05-31 08:55:48,0.02,0.28,0.00,23.65,27.82,30.27,9.43,39.48,1006.36,2038.03,3371.44,3238.95,3524.05,499.84,490.55,14.45,0000 0000 0000 0000 000000
2014-05-31 09:00:50,0.03,0.29,0.00,23.65,27.82,30.28,9.45,39.48,1006.36,2038.01,3370.85,3238.16,3523.79,500.16,490.82,14.49,0000 0000 0000 0000 000000
2014-05-31 09:05:50,0.02,0.29,0.00,23.66,27.83,30.30,9.49,39.42,1006.37,2038.00,3370.06,3237.95,3523.05,500.23,490.80,14.53,0000 0000 0000 0000 000000
2014-05-31 09:10:51,0.03,0.29,0.00,23.65,27.85,30.29,9.49,39.54,1006.37,2038.00,3369.73,3237.41,3522.97,500.29,490.99,14.58,0000 0000 0000 0000 000000
2014-05-31 09:15:52,0.03,0.29,0.00,23.66,27.85,30.31,9.46,39.46,1006.39,2038.00,3369.00,3237.01,3522.24,500.00,490.56,14.62,0000 0000 0000 0000 000000
2014-05-31 09:20:53,0.02,0.29,0.00,23.66,27.85,30.32,9.45,39.62,1006.38,2038.00,3368.23,3236.84,3521.99,499.89,490.54,14.66,0000 0000 0000 0000 000000
2014-05-31 09:25:54,0.03,0.29,0.00,23.67,27.87,30.32,9.48,39.44,1006.37,2037.99,3368.01,3236.23,3521.74,500.27,490.86,14.70,0000 0000 0000 0000 000000
2014-05-31 09:30:56,0.01,0.29,0.00,23.67,27.87,30.32,9.46,39.52,1006.37,2037.99,3367.85,3236.01,3521.12,500.22,490.63,14.74,0000 0000 0000 0000 000000
2014-05-31 09:35:57,0.01,0.29,0.00,23.67,27.87,30.34,9.47,39.54,1006.36,2037.99,3367.12,3235.97,3521.00,499.84,490.42,14.79,0000 0000 0000 0000 000000
2014-05-31 09:40:58,0.00,0.29,0.00,23.67,27.88,30.33,9.46,39.39,1006.38,2037.99,3367.00,3235.83,3520.96,500.20,490.74,14.83,0000 0000 0000 0000 000000
2014-05-31 09:45:59,0.03,0.29,0.00,23.67,27.89,30.35,9.44,39.33,1006.38,2037.97,3366.78,3235.26,3520.55,500.24,490.91,14.87,0000 0000 0000 0000 000000
2014-05-31 09:51:00,0.02,0.30,0.00,23.67,27.90,30.35,9.44,39.29,1006.38,2037.96,3366.13,3235.01,3520.06,499.71,490.44,14.91,0000 0000 0000 0000 000000
2014-05-31 09:56:01,0.00,0.30,0.00,23.67,27.90,30.36,9.46,39.39,1006.37,2037.96,3366.01,3235.00,3520.00,500.16,490.58,14.95,0000 0000 0000 0000 000000
2014-05-31 10:01:02,-0.01,0.30,0.00,23.67,27.90,30.36,9.45,39.19,1006.37,2037.94,3365.99,3235.00,3519.99,500.10,490.75,14.99,0000 0000 0000 0000 000000
2014-05-31 10:06:04,0.01,0.30,0.00,23.67,27.91,30.37,9.45,39.25,1006.37,2037.91,3365.77,3234.84,3519.95,499.61,490.13,15.04,0000 0000 0000 0000 000000
2014-05-31 10:11:05,0.02,0.30,0.00,23.67,27.92,30.37,9.44,39.27,1006.40,2037.86,3365.15,3234.54,3519.68,500.05,490.63,15.08,0000 0000 0000 0000 000000
2014-05-31 10:16:06,0.02,0.30,0.00,23.66,27.92,30.38,9.42,39.24,1006.44,2037.83,3365.01,3234.13,3519.23,499.86,490.55,15.12,0000 0000 0000 0000 000000
2014-05-31 10:21:06,-0.00,0.30,0.00,23.67,27.92,30.38,9.38,39.42,1006.44,2037.86,3365.00,3234.09,3519.18,499.66,490.30,15.16,0000 0000 0000 0000 000000
2014-05-31 10:26:07,-0.01,0.30,0.00,23.67,27.92,30.38,9.49,39.21,1006.46,2037.70,3364.99,3234.00,3519.00,500.00,490.69,15.20,0000 0000 0000 0000 000000
2014-05-31 10:31:08,0.00,0.30,0.00,23.67,27.93,30.39,9.43,39.20,1006.64,2037.71,3364.93,3234.00,3519.00,500.20,490.78,15.25,0000 0000 0000 0000 000000
2014-05-31 10:36:10,-0.00,0.30,0.00,23.65,27.94,30.39,9.48,39.23,1006.61,2037.69,3364.37,3234.00,3518.99,499.94,490.49,15.29,0000 0000 0000 0000 000000
2014-05-31 10:41:11,0.03,0.30,0.00,23.67,27.95,30.39,9.46,39.44,1006.50,2037.79,3364.08,3233.96,3518.95,499.66,490.25,15.33,0000 0000 0000 0000 000000
2014-05-31 10:46:12,-0.01,0.30,0.00,23.66,27.95,30.40,9.47,39.17,1006.59,2037.55,3364.00,3233.64,3518.51,499.87,490.47,15.37,0000 0000 0000 0000 000000
2014-05-31 10:51:14,0.02,0.30,0.00,23.66,27.95,30.40,9.56,39.38,1006.63,2037.43,3363.94,3233.14,3518.09,500.45,491.12,15.41,0000 0000 0000 0000 000000
2014-05-31 10:56:15,0.02,0.30,0.00,23.65,27.95,30.39,9.51,39.23,1006.60,2037.46,3363.53,3233.02,3518.01,499.94,490.67,15.45,0000 0000 0000 0000 000000
2014-05-31 11:01:16,0.00,0.30,0.00,23.65,27.95,30.40,9.47,39.16,1006.57,2037.46,3363.05,3233.00,3517.99,499.79,490.41,15.50,0000 0000 0000 0000 000000
2014-05-31 11:06:17,-0.01,0.30,0.00,23.65,27.95,30.41,9.49,39.17,1006.58,2037.40,3363.00,3232.99,3517.97,499.79,490.55,15.54,0000 0000 0000 0000 000000
2014-05-31 11:11:18,0.00,0.30,0.00,23.65,27.95,30.41,9.44,39.13,1006.50,2037.43,3362.99,3232.97,3517.73,499.93,490.76,15.58,0000 0000 0000 0000 000000
2014-05-31 11:16:19,0.01,0.30,0.00,23.65,27.95,30.40,9.50,39.27,1006.76,2037.29,3362.66,3232.68,3517.11,500.20,490.90,15.62,0000 0000 0000 0000 000000
2014-05-31 11:21:20,0.03,0.30,0.00,23.65,27.95,30.41,9.47,39.23,1006.69,2037.25,3362.07,3232.18,3517.01,499.79,490.54,15.66,0000 0000 0000 0000 000000
2014-05-31 11:26:21,0.00,0.30,0.00,23.64,27.95,30.42,9.43,39.23,1006.74,2037.29,3362.00,3232.02,3517.00,499.83,490.65,15.71,0000 0000 0000 0000 000000
2014-05-31 11:31:22,0.00,0.30,0.00,23.63,27.95,30.42,9.46,39.36,1006.67,2037.28,3361.99,3232.00,3516.96,499.88,490.90,15.75,0000 0000 0000 0000 000000
2014-05-31 11:36:24,0.02,0.30,0.00,23.62,27.95,30.42,9.47,39.36,1006.45,2037.30,3361.65,3231.99,3516.62,499.80,490.67,15.79,0000 0000 0000 0000 000000
2014-05-31 11:41:24,0.01,0.30,0.00,23.62,27.95,30.42,9.48,39.38,1006.41,2037.20,3361.02,3231.69,3516.02,499.57,490.25,15.83,0000 0000 0000 0000 000000
2014-05-31 11:46:26,0.02,0.31,0.00,23.61,27.95,30.42,9.50,39.28,1006.44,2037.30,3360.89,3231.15,3515.99,500.27,490.94,15.87,0000 0000 0000 0000 000000
2014-05-31 11:51:27,0.02,0.31,0.00,23.62,27.95,30.41,9.44,39.41,1006.44,2037.19,3360.07,3230.96,3515.48,500.05,490.75,15.91,0000 0000 0000 0000 000000
2014-05-31 11:56:28,0.04,0.31,0.00,23.61,27.95,30.41,9.46,39.35,1006.42,2037.15,3359.14,3230.17,3514.94,500.03,490.82,15.96,0000 0000 0000 0000 000000
2014-05-31 12:01:29,0.02,0.31,0.00,23.60,27.95,30.41,9.46,39.64,1006.38,2037.16,3358.87,3230.00,3514.35,499.81,490.43,16.00,0000 0000 0000 0000 000000
2014-05-31 12:06:29,0.01,0.31,0.00,23.60,27.95,30.42,9.49,39.54,1006.39,2037.15,3358.08,3229.94,3514.01,499.63,490.54,16.04,0000 0000 0000 0000 000000
2014-05-31 12:11:31,0.01,0.31,0.00,23.60,27.95,30.41,9.51,39.48,1006.40,2037.06,3357.96,3229.30,3513.96,500.31,490.91,16.08,0000 0000 0000 0000 000000
2014-05-31 12:16:32,0.02,0.31,0.00,23.60,27.95,30.41,9.52,39.59,1006.52,2037.08,3357.48,3229.02,3513.62,500.07,490.87,16.12,0000 0000 0000 0000 000000
2014-05-31 12:21:33,0.01,0.31,0.00,23.59,27.95,30.41,9.52,39.51,1006.66,2037.12,3357.08,3229.00,3513.24,499.95,490.80,16.17,0000 0000 0000 0000 000000
2014-05-31 12:26:35,0.00,0.31,0.00,23.58,27.95,30.41,9.42,39.39,1006.65,2037.09,3357.01,3229.00,3513.07,500.12,490.79,16.21,0000 0000 0000 0000 000000
2014-05-31 12:31:36,0.00,0.31,0.00,23.58,27.95,30.40,9.49,39.39,1006.78,2037.09,3357.00,3229.00,3513.02,499.61,490.76,16.25,0000 0000 0000 0000 000000
2014-05-31 12:36:37,0.01,0.31,0.00,23.58,27.95,30.40,9.51,39.27,1006.68,2037.14,3356.99,3228.99,3513.00,500.36,491.23,16.29,0000 0000 0000 0000 000000
2014-05-31 12:41:38,0.01,0.31,0.00,23.57,27.95,30.39,9.48,39.31,1006.62,2037.31,3356.84,3228.96,3512.99,499.72,490.61,16.33,0000 0000 0000 0000 000000
2014-05-31 12:46:39,0.04,0.31,0.00,23.57,27.95,30.41,9.49,39.23,1006.48,2037.21,3356.08,3228.41,3512.58,500.10,490.76,16.37,0000 0000 0000 0000 000000
2014-05-31 12:51:40,0.06,0.32,0.00,23.57,27.95,30.40,9.51,39.31,1006.40,2037.16,3354.82,3227.59,3511.59,500.26,490.90,16.42,0000 0000 0000 0000 000000
2014-05-31 12:56:42,0.06,0.32,0.00,23.56,27.94,30.40,9.46,39.48,1006.39,2037.09,3353.57,3226.73,3510.64,499.90,490.68,16.46,0000 0000 0000 0000 000000
2014-05-31 13:01:43,0.06,0.32,0.00,23.55,27.94,30.40,9.40,39.47,1006.38,2037.09,3352.39,3225.87,3509.73,499.64,490.40,16.50,0000 0000 0000 0000 000000